OMD191 KCLT-KMZJ

Flight info

Callsign OMD191
Flight time 4h 57m
Altitude 38000
Route BOBZY5 BNA OMDUE IGLOO IRW WUDPI PNH J26 ELP J2 TUS
Aircraft A21N/M-SDE3FGHIRWY/LB1

Departure

Time 2026-05-07 17:44
Airport Charlotte Douglas International Airport (KCLT)

Arrival

Time 2026-05-07 22:41
Airport Pinal Airpark (KMZJ)
Time Latitude Longitude Altitude Speed Heading
2026-05-07 17:29 35.22521 -80.94932 756 ft 0 kts 88°
2026-05-07 17:37 35.22520 -80.94922 756 ft 6 kts 99°
2026-05-07 17:37 35.22471 -80.94909 756 ft 9 kts 215°
2026-05-07 17:37 35.22450 -80.94988 756 ft 10 kts 264°
2026-05-07 17:38 35.22429 -80.95076 756 ft 11 kts 216°
2026-05-07 17:38 35.22347 -80.95083 756 ft 12 kts 176°
2026-05-07 17:38 35.22252 -80.95074 756 ft 14 kts 176°
2026-05-07 17:38 35.22144 -80.95064 756 ft 18 kts 176°
2026-05-07 17:39 35.22002 -80.95052 756 ft 20 kts 175°
2026-05-07 17:39 35.21859 -80.95040 756 ft 20 kts 176°
2026-05-07 17:39 35.21717 -80.95028 756 ft 20 kts 175°
2026-05-07 17:39 35.21577 -80.95016 756 ft 19 kts 175°
2026-05-07 17:40 35.21440 -80.95004 756 ft 19 kts 176°
2026-05-07 17:40 35.21303 -80.94993 756 ft 18 kts 174°
2026-05-07 17:40 35.21189 -80.94981 756 ft 17 kts 176°
2026-05-07 17:40 35.21067 -80.94971 756 ft 15 kts 175°
2026-05-07 17:41 35.20944 -80.94961 756 ft 18 kts 176°
2026-05-07 17:41 35.20813 -80.94950 756 ft 19 kts 175°
2026-05-07 17:41 35.20676 -80.94939 756 ft 19 kts 177°
2026-05-07 17:41 35.20541 -80.94928 756 ft 19 kts 175°
2026-05-07 17:42 35.20407 -80.94916 756 ft 19 kts 175°
2026-05-07 17:42 35.20274 -80.94904 756 ft 19 kts 175°
2026-05-07 17:42 35.20140 -80.94893 756 ft 19 kts 175°
2026-05-07 17:42 35.20036 -80.94906 756 ft 13 kts 227°
2026-05-07 17:43 35.20023 -80.94943 756 ft 0 kts 261°
2026-05-07 17:43 35.20019 -80.94991 756 ft 14 kts 266°
2026-05-07 17:43 35.20123 -80.95095 756 ft 36 kts 355°
2026-05-07 17:44 35.20660 -80.95139 756 ft 116 kts 355°
2026-05-07 17:44 35.21643 -80.95214 889 ft 164 kts 354°
2026-05-07 17:44 35.22769 -80.95290 1594 ft 168 kts 354°
2026-05-07 17:44 35.23927 -80.95383 2394 ft 171 kts 351°
2026-05-07 17:45 35.25096 -80.95519 3220 ft 171 kts 346°
2026-05-07 17:45 35.26125 -80.95968 4089 ft 151 kts 323°
2026-05-07 17:45 35.26703 -80.96997 4631 ft 162 kts 274°
2026-05-07 17:45 35.26405 -80.98266 5714 ft 159 kts 245°
2026-05-07 17:46 35.25953 -80.99413 6799 ft 153 kts 249°
2026-05-07 17:46 35.25598 -81.00584 7789 ft 151 kts 254°
2026-05-07 17:46 35.25312 -81.01804 8635 ft 160 kts 257°
2026-05-07 17:46 35.25059 -81.03174 9402 ft 176 kts 261°
2026-05-07 17:47 35.24874 -81.04686 10266 ft 190 kts 263°
2026-05-07 17:47 35.24710 -81.06352 11100 ft 208 kts 263°
2026-05-07 17:47 35.24529 -81.08150 11909 ft 226 kts 263°
2026-05-07 17:47 35.24330 -81.10092 12706 ft 240 kts 262°
2026-05-07 17:48 35.24116 -81.12159 13232 ft 254 kts 262°
2026-05-07 17:48 35.23882 -81.14374 13641 ft 272 kts 262°
2026-05-07 17:48 35.23627 -81.16765 14042 ft 289 kts 262°
2026-05-07 17:48 35.23368 -81.19192 14692 ft 295 kts 262°
2026-05-07 17:49 35.23103 -81.21664 15524 ft 296 kts 262°
2026-05-07 17:49 35.22836 -81.24161 16356 ft 295 kts 263°
2026-05-07 17:49 35.22575 -81.26614 17040 ft 298 kts 262°
2026-05-07 17:49 35.22297 -81.29176 17487 ft 307 kts 263°
2026-05-07 17:50 35.22010 -81.31832 17754 ft 322 kts 263°
2026-05-07 17:50 35.21714 -81.34589 17956 ft 335 kts 262°
2026-05-07 17:50 35.21411 -81.37428 18288 ft 344 kts 262°
2026-05-07 17:50 35.21095 -81.40326 18812 ft 347 kts 263°
2026-05-07 17:51 35.20775 -81.43260 19108 ft 355 kts 263°
2026-05-07 17:51 35.20447 -81.46281 19462 ft 361 kts 262°
2026-05-07 17:51 35.20114 -81.49326 19961 ft 363 kts 262°
2026-05-07 17:51 35.19778 -81.52385 20428 ft 364 kts 262°
2026-05-07 17:52 35.19453 -81.55341 20862 ft 366 kts 262°
2026-05-07 17:52 35.19116 -81.58380 21317 ft 367 kts 262°
2026-05-07 17:52 35.18803 -81.61391 22051 ft 360 kts 263°
2026-05-07 17:52 35.18608 -81.64401 22970 ft 349 kts 265°
2026-05-07 17:53 35.18521 -81.67293 23847 ft 340 kts 266°
2026-05-07 17:53 35.18458 -81.70140 24466 ft 339 kts 266°
2026-05-07 17:53 35.18390 -81.73020 24933 ft 341 kts 266°
2026-05-07 17:53 35.18327 -81.75932 25374 ft 343 kts 266°
2026-05-07 17:54 35.18259 -81.78867 25837 ft 345 kts 267°
2026-05-07 17:54 35.18199 -81.81781 26310 ft 345 kts 266°
2026-05-07 17:54 35.18137 -81.84698 26724 ft 347 kts 266°
2026-05-07 17:54 35.18071 -81.87646 27141 ft 348 kts 267°
2026-05-07 17:55 35.18005 -81.90585 27526 ft 350 kts 266°
2026-05-07 17:55 35.17939 -81.93597 27938 ft 351 kts 267°
2026-05-07 17:55 35.17872 -81.96575 28340 ft 352 kts 267°
2026-05-07 17:55 35.17807 -81.99566 28699 ft 354 kts 266°
2026-05-07 17:56 35.17737 -82.02556 29058 ft 356 kts 267°
2026-05-07 17:56 35.17669 -82.05574 29425 ft 357 kts 267°
2026-05-07 17:56 35.17600 -82.08585 29904 ft 355 kts 266°
2026-05-07 17:56 35.17557 -82.11572 30392 ft 353 kts 268°
2026-05-07 17:57 35.17615 -82.14560 30839 ft 352 kts 269°
2026-05-07 17:57 35.17704 -82.16532 31129 ft 352 kts 270°
2026-05-07 17:57 35.18012 -82.20468 31757 ft 350 kts 273°
2026-05-07 17:57 35.18356 -82.23415 32243 ft 349 kts 274°
2026-05-07 17:58 35.18794 -82.26345 32686 ft 348 kts 276°
2026-05-07 17:58 35.19326 -82.29223 33138 ft 348 kts 277°
2026-05-07 17:58 35.19939 -82.32039 33624 ft 348 kts 279°
2026-05-07 17:58 35.20601 -82.34892 34132 ft 347 kts 278°
2026-05-07 17:59 35.21252 -82.37714 34619 ft 345 kts 279°
2026-05-07 17:59 35.21901 -82.40505 35172 ft 341 kts 278°
2026-05-07 17:59 35.22544 -82.43265 35676 ft 338 kts 279°
2026-05-07 17:59 35.23196 -82.46051 36114 ft 337 kts 278°
2026-05-07 18:00 35.23839 -82.48799 36430 ft 338 kts 278°
2026-05-07 18:00 35.24474 -82.51527 36666 ft 340 kts 279°
2026-05-07 18:00 35.25126 -82.54325 36916 ft 341 kts 279°
2026-05-07 18:00 35.25777 -82.57110 37187 ft 341 kts 279°
2026-05-07 18:01 35.26427 -82.59895 37469 ft 341 kts 278°
2026-05-07 18:01 35.27090 -82.62724 37677 ft 342 kts 278°
2026-05-07 18:01 35.27735 -82.65505 37845 ft 343 kts 279°
2026-05-07 18:01 35.28392 -82.68319 37907 ft 344 kts 278°
2026-05-07 18:02 35.30356 -82.76741 37922 ft 343 kts 278°
2026-05-07 18:03 35.31662 -82.82379 37932 ft 342 kts 278°
2026-05-07 18:03 35.32954 -82.87956 37942 ft 340 kts 279°
2026-05-07 18:04 35.34237 -82.93510 37952 ft 339 kts 278°
2026-05-07 18:04 35.35521 -82.99099 37956 ft 338 kts 279°
2026-05-07 18:05 35.36797 -83.04627 37962 ft 339 kts 278°
2026-05-07 18:05 35.38067 -83.10188 37957 ft 338 kts 279°
2026-05-07 18:06 35.39339 -83.15749 37961 ft 339 kts 278°
2026-05-07 18:06 35.40601 -83.21283 37962 ft 338 kts 278°
2026-05-07 18:07 35.41866 -83.26842 37967 ft 338 kts 279°
2026-05-07 18:07 35.43128 -83.32391 37962 ft 338 kts 278°
2026-05-07 18:08 35.44376 -83.37911 37951 ft 338 kts 279°
2026-05-07 18:08 35.45630 -83.43465 37949 ft 339 kts 279°
2026-05-07 18:09 35.46882 -83.49041 37946 ft 338 kts 279°
2026-05-07 18:09 35.48107 -83.54500 37947 ft 337 kts 279°
2026-05-07 18:10 35.49347 -83.60024 37944 ft 338 kts 278°
2026-05-07 18:10 35.50588 -83.65591 37949 ft 338 kts 278°
2026-05-07 18:11 35.51820 -83.71134 37954 ft 338 kts 278°
2026-05-07 18:11 35.53055 -83.76686 37950 ft 339 kts 278°
2026-05-07 18:12 35.54288 -83.82256 37955 ft 338 kts 278°
2026-05-07 18:12 35.55509 -83.87778 37963 ft 337 kts 279°
2026-05-07 18:13 35.56731 -83.93310 37959 ft 336 kts 278°
2026-05-07 18:13 35.57948 -83.98850 37961 ft 336 kts 278°
2026-05-07 18:14 35.59127 -84.04227 37961 ft 336 kts 279°
2026-05-07 18:14 35.60334 -84.09744 37963 ft 336 kts 279°
2026-05-07 18:15 35.61551 -84.15298 37964 ft 336 kts 278°
2026-05-07 18:15 35.62754 -84.20828 37966 ft 335 kts 278°
2026-05-07 18:16 35.63951 -84.26327 37973 ft 334 kts 279°
2026-05-07 18:16 35.65143 -84.31812 37974 ft 333 kts 278°
2026-05-07 18:17 35.66321 -84.37273 37975 ft 332 kts 279°
2026-05-07 18:17 35.67512 -84.42786 37976 ft 332 kts 279°
2026-05-07 18:18 35.68682 -84.48221 37975 ft 332 kts 279°
2026-05-07 18:18 35.69856 -84.53696 37974 ft 331 kts 279°
2026-05-07 18:19 35.71033 -84.59186 37970 ft 332 kts 279°
2026-05-07 18:19 35.72198 -84.64629 37969 ft 332 kts 279°
2026-05-07 18:20 35.73368 -84.70129 37975 ft 331 kts 278°
2026-05-07 18:20 35.74530 -84.75594 37973 ft 330 kts 279°
2026-05-07 18:21 35.75681 -84.81008 37975 ft 330 kts 279°
2026-05-07 18:21 35.76836 -84.86456 37974 ft 329 kts 278°
2026-05-07 18:22 35.77986 -84.91907 37976 ft 329 kts 279°
2026-05-07 18:22 35.79125 -84.97314 37978 ft 327 kts 279°
2026-05-07 18:23 35.80270 -85.02760 37980 ft 327 kts 278°
2026-05-07 18:23 35.81401 -85.08167 37986 ft 327 kts 279°
2026-05-07 18:24 35.82529 -85.13572 37982 ft 326 kts 279°
2026-05-07 18:24 35.83647 -85.18944 37987 ft 326 kts 279°
2026-05-07 18:25 35.84748 -85.24226 37988 ft 327 kts 279°
2026-05-07 18:25 35.85871 -85.29633 37989 ft 326 kts 278°
2026-05-07 18:26 35.86994 -85.35053 37994 ft 326 kts 279°
2026-05-07 18:26 35.88106 -85.40443 37998 ft 325 kts 279°
2026-05-07 18:27 35.89211 -85.45820 38005 ft 325 kts 279°
2026-05-07 18:27 35.90315 -85.51201 38002 ft 325 kts 279°
2026-05-07 18:28 35.91426 -85.56627 38004 ft 326 kts 279°
2026-05-07 18:28 35.92521 -85.62012 38005 ft 325 kts 279°
2026-05-07 18:29 35.93615 -85.67407 38006 ft 324 kts 278°
2026-05-07 18:29 35.94712 -85.72810 38002 ft 324 kts 279°
2026-05-07 18:30 35.95801 -85.78193 38003 ft 324 kts 279°
2026-05-07 18:30 35.96885 -85.83570 38007 ft 322 kts 278°
2026-05-07 18:31 35.97963 -85.88914 38001 ft 322 kts 279°
2026-05-07 18:31 35.99049 -85.94271 38001 ft 322 kts 278°
2026-05-07 18:32 36.00123 -85.99627 37999 ft 322 kts 279°
2026-05-07 18:32 36.01201 -86.04974 38002 ft 321 kts 278°
2026-05-07 18:33 36.02269 -86.10338 38003 ft 321 kts 279°
2026-05-07 18:33 36.03329 -86.15646 38008 ft 322 kts 279°
2026-05-07 18:34 36.04400 -86.21018 38010 ft 322 kts 278°
2026-05-07 18:34 36.05465 -86.26398 38019 ft 323 kts 279°
2026-05-07 18:35 36.06532 -86.31793 38017 ft 323 kts 279°
2026-05-07 18:35 36.07587 -86.37140 38023 ft 323 kts 279°
2026-05-07 18:36 36.08651 -86.42551 38023 ft 324 kts 278°
2026-05-07 18:36 36.09709 -86.47947 38029 ft 324 kts 279°
2026-05-07 18:37 36.10766 -86.53355 38031 ft 324 kts 279°
2026-05-07 18:37 36.11824 -86.58768 38029 ft 325 kts 279°
2026-05-07 18:38 36.12779 -86.64203 38032 ft 322 kts 277°
2026-05-07 18:38 36.13400 -86.69698 38034 ft 322 kts 273°
2026-05-07 18:39 36.13676 -86.75190 38034 ft 321 kts 270°
2026-05-07 18:39 36.13730 -86.80674 38034 ft 321 kts 270°
2026-05-07 18:40 36.13781 -86.86201 38033 ft 320 kts 269°
2026-05-07 18:40 36.13816 -86.91688 38031 ft 319 kts 269°
2026-05-07 18:41 36.13850 -86.97156 38027 ft 319 kts 270°
2026-05-07 18:41 36.13874 -87.02633 38030 ft 319 kts 270°
2026-05-07 18:42 36.13890 -87.08118 38027 ft 319 kts 270°
2026-05-07 18:42 36.13911 -87.13590 38025 ft 320 kts 270°
2026-05-07 18:43 36.13926 -87.19059 38024 ft 320 kts 269°
2026-05-07 18:43 36.13936 -87.24558 38028 ft 320 kts 270°
2026-05-07 18:44 36.13943 -87.30066 38027 ft 320 kts 270°
2026-05-07 18:44 36.13950 -87.35551 38028 ft 321 kts 269°
2026-05-07 18:45 36.13952 -87.41075 38028 ft 321 kts 270°
2026-05-07 18:45 36.13957 -87.46596 38031 ft 321 kts 269°
2026-05-07 18:46 36.13951 -87.52104 38032 ft 322 kts 270°
2026-05-07 18:46 36.13948 -87.57613 38032 ft 321 kts 269°
2026-05-07 18:47 36.13941 -87.63129 38032 ft 322 kts 269°
2026-05-07 18:47 36.13931 -87.68654 38037 ft 322 kts 269°
2026-05-07 18:48 36.13921 -87.74199 38037 ft 322 kts 269°
2026-05-07 18:48 36.13908 -87.79712 38036 ft 322 kts 269°
2026-05-07 18:49 36.13885 -87.85215 38037 ft 321 kts 269°
2026-05-07 18:49 36.13866 -87.90739 38039 ft 322 kts 269°
2026-05-07 18:50 36.13847 -87.96147 38038 ft 321 kts 269°
2026-05-07 18:50 36.13823 -88.01657 38039 ft 320 kts 269°
2026-05-07 18:51 36.13800 -88.07179 38041 ft 320 kts 269°
2026-05-07 18:51 36.13769 -88.12649 38046 ft 322 kts 269°
2026-05-07 18:52 36.13735 -88.18175 38041 ft 322 kts 269°
2026-05-07 18:52 36.13702 -88.23724 38046 ft 322 kts 269°
2026-05-07 18:53 36.13662 -88.29224 38047 ft 321 kts 269°
2026-05-07 18:53 36.13624 -88.34727 38048 ft 321 kts 269°
2026-05-07 18:54 36.13580 -88.40247 38057 ft 322 kts 269°
2026-05-07 18:54 36.13539 -88.45781 38055 ft 322 kts 268°
2026-05-07 18:55 36.13488 -88.51297 38057 ft 322 kts 269°
2026-05-07 18:55 36.13439 -88.56813 38056 ft 322 kts 268°
2026-05-07 18:56 36.13384 -88.62341 38055 ft 322 kts 269°
2026-05-07 18:56 36.13328 -88.67878 38059 ft 322 kts 268°
2026-05-07 18:57 36.13271 -88.73263 38054 ft 323 kts 268°
2026-05-07 18:57 36.13210 -88.78768 38058 ft 323 kts 268°
2026-05-07 18:58 36.13145 -88.84293 38056 ft 323 kts 268°
2026-05-07 18:58 36.13077 -88.89831 38057 ft 323 kts 268°
2026-05-07 18:59 36.12977 -88.95297 38056 ft 322 kts 266°
2026-05-07 18:59 36.12568 -89.00807 38058 ft 323 kts 264°
2026-05-07 19:00 36.12026 -89.06316 38057 ft 322 kts 264°
2026-05-07 19:00 36.11478 -89.11805 38056 ft 322 kts 264°
2026-05-07 19:01 36.10927 -89.17270 38056 ft 323 kts 264°
2026-05-07 19:01 36.10368 -89.22770 38057 ft 322 kts 264°
2026-05-07 19:02 36.09803 -89.28236 38057 ft 322 kts 264°
2026-05-07 19:02 36.09236 -89.33742 38056 ft 322 kts 264°
2026-05-07 19:03 36.08671 -89.39191 38057 ft 322 kts 264°
2026-05-07 19:03 36.08101 -89.44658 38055 ft 321 kts 264°
2026-05-07 19:04 36.07526 -89.50139 38055 ft 322 kts 264°
2026-05-07 19:04 36.06952 -89.55568 38055 ft 321 kts 264°
2026-05-07 19:05 36.06372 -89.61054 38055 ft 322 kts 263°
2026-05-07 19:05 36.05787 -89.66540 38063 ft 322 kts 263°
2026-05-07 19:06 36.05202 -89.72018 38058 ft 322 kts 263°
2026-05-07 19:06 36.04320 -89.80212 38053 ft 322 kts 263°
2026-05-07 19:07 36.03732 -89.85673 38046 ft 322 kts 263°
2026-05-07 19:07 36.03136 -89.91154 38048 ft 322 kts 264°
2026-05-07 19:08 36.02542 -89.96629 38048 ft 322 kts 263°
2026-05-07 19:08 36.01960 -90.01927 38057 ft 322 kts 263°
2026-05-07 19:09 36.01375 -90.07277 38069 ft 322 kts 263°
2026-05-07 19:09 36.00773 -90.12730 38060 ft 322 kts 263°
2026-05-07 19:10 36.00167 -90.18190 38057 ft 322 kts 263°
2026-05-07 19:10 35.99561 -90.23638 38060 ft 322 kts 263°
2026-05-07 19:11 35.98951 -90.29097 38060 ft 322 kts 263°
2026-05-07 19:11 35.98339 -90.34568 38063 ft 322 kts 263°
2026-05-07 19:12 35.97722 -90.40046 38064 ft 322 kts 263°
2026-05-07 19:12 35.97108 -90.45491 38075 ft 323 kts 263°
2026-05-07 19:13 35.96487 -90.50955 38064 ft 322 kts 263°
2026-05-07 19:13 35.95865 -90.56409 38062 ft 322 kts 263°
2026-05-07 19:14 35.95238 -90.61882 38063 ft 323 kts 263°
2026-05-07 19:14 35.94604 -90.67348 38068 ft 323 kts 263°
2026-05-07 19:15 35.93973 -90.72821 38068 ft 323 kts 262°
2026-05-07 19:15 35.93337 -90.78297 38061 ft 323 kts 263°
2026-05-07 19:16 35.92703 -90.83737 38060 ft 323 kts 262°
2026-05-07 19:16 35.92058 -90.89236 38065 ft 324 kts 262°
2026-05-07 19:17 35.91415 -90.94731 38061 ft 323 kts 262°
2026-05-07 19:17 35.90773 -91.00181 38045 ft 323 kts 262°
2026-05-07 19:18 35.90118 -91.05667 38041 ft 323 kts 263°
2026-05-07 19:18 35.89469 -91.11156 38038 ft 323 kts 262°
2026-05-07 19:19 35.88815 -91.16625 38034 ft 324 kts 262°
2026-05-07 19:19 35.88157 -91.22134 38039 ft 324 kts 262°
2026-05-07 19:20 35.87496 -91.27632 38042 ft 324 kts 263°
2026-05-07 19:20 35.86837 -91.33102 38036 ft 325 kts 262°
2026-05-07 19:21 35.86170 -91.38618 38042 ft 326 kts 262°
2026-05-07 19:21 35.85499 -91.44125 38046 ft 327 kts 262°
2026-05-07 19:22 35.84819 -91.49666 38047 ft 326 kts 262°
2026-05-07 19:22 35.84143 -91.55176 38046 ft 327 kts 262°
2026-05-07 19:23 35.83459 -91.60709 38052 ft 326 kts 262°
2026-05-07 19:23 35.82780 -91.66190 38059 ft 326 kts 262°
2026-05-07 19:24 35.82105 -91.71735 38053 ft 326 kts 262°
2026-05-07 19:24 35.81695 -91.77286 38052 ft 327 kts 265°
2026-05-07 19:25 35.81387 -91.82838 38056 ft 327 kts 265°
2026-05-07 19:25 35.81072 -91.88432 38051 ft 327 kts 265°
2026-05-07 19:26 35.80761 -91.93988 38047 ft 327 kts 265°
2026-05-07 19:26 35.80448 -91.99573 38046 ft 327 kts 265°
2026-05-07 19:27 35.80133 -92.05183 38049 ft 328 kts 265°
2026-05-07 19:27 35.79817 -92.10754 38050 ft 327 kts 265°
2026-05-07 19:28 35.79499 -92.16348 38053 ft 328 kts 265°
2026-05-07 19:28 35.79184 -92.21836 38053 ft 327 kts 265°
2026-05-07 19:29 35.78864 -92.27355 38054 ft 328 kts 264°
2026-05-07 19:29 35.78538 -92.32954 38054 ft 328 kts 265°
2026-05-07 19:30 35.78207 -92.38519 38056 ft 328 kts 265°
2026-05-07 19:30 35.77879 -92.44050 38056 ft 328 kts 265°
2026-05-07 19:31 35.77546 -92.49612 38060 ft 328 kts 265°
2026-05-07 19:31 35.77211 -92.55205 38056 ft 328 kts 265°
2026-05-07 19:32 35.76872 -92.60796 38060 ft 328 kts 265°
2026-05-07 19:32 35.76531 -92.66412 38063 ft 328 kts 264°
2026-05-07 19:33 35.76183 -92.72004 38057 ft 328 kts 264°
2026-05-07 19:33 35.75843 -92.77494 38056 ft 329 kts 264°
2026-05-07 19:34 35.75490 -92.83126 38057 ft 329 kts 264°
2026-05-07 19:34 35.75137 -92.88740 38058 ft 329 kts 264°
2026-05-07 19:35 35.74781 -92.94334 38057 ft 329 kts 264°
2026-05-07 19:35 35.74421 -92.99933 38058 ft 328 kts 264°
2026-05-07 19:36 35.74067 -93.05410 38055 ft 328 kts 264°
2026-05-07 19:36 35.73706 -93.10993 38049 ft 329 kts 264°
2026-05-07 19:37 35.73340 -93.16592 38043 ft 330 kts 264°
2026-05-07 19:37 35.72980 -93.22098 38041 ft 330 kts 264°
2026-05-07 19:38 35.72604 -93.27740 38040 ft 330 kts 264°
2026-05-07 19:38 35.72230 -93.33370 38042 ft 331 kts 264°
2026-05-07 19:39 35.71851 -93.38990 38043 ft 330 kts 264°
2026-05-07 19:39 35.71468 -93.44609 38045 ft 331 kts 264°
2026-05-07 19:40 35.71086 -93.50234 38046 ft 331 kts 264°
2026-05-07 19:40 35.70701 -93.55869 38047 ft 332 kts 264°
2026-05-07 19:41 35.70310 -93.61499 38048 ft 332 kts 264°
2026-05-07 19:41 35.69917 -93.67152 38054 ft 332 kts 263°
2026-05-07 19:42 35.69520 -93.72808 38050 ft 332 kts 263°
2026-05-07 19:42 35.69123 -93.78455 38050 ft 332 kts 263°
2026-05-07 19:43 35.68723 -93.84073 38052 ft 333 kts 263°
2026-05-07 19:43 35.68317 -93.89726 38054 ft 333 kts 264°
2026-05-07 19:44 35.67911 -93.95395 38055 ft 333 kts 263°
2026-05-07 19:44 35.67513 -94.00888 38052 ft 333 kts 264°
2026-05-07 19:45 35.67100 -94.06537 38054 ft 334 kts 263°
2026-05-07 19:45 35.66684 -94.12212 38054 ft 333 kts 263°
2026-05-07 19:46 35.66257 -94.17964 38053 ft 334 kts 264°
2026-05-07 19:46 35.65834 -94.23638 38055 ft 334 kts 263°
2026-05-07 19:47 35.65413 -94.29265 38054 ft 334 kts 264°
2026-05-07 19:47 35.64987 -94.34969 38055 ft 334 kts 263°
2026-05-07 19:48 35.64556 -94.40634 38054 ft 335 kts 263°
2026-05-07 19:48 35.64120 -94.46330 38055 ft 334 kts 263°
2026-05-07 19:49 35.63689 -94.51990 38053 ft 335 kts 263°
2026-05-07 19:49 35.63247 -94.57698 38051 ft 335 kts 263°
2026-05-07 19:50 35.62804 -94.63377 38050 ft 335 kts 263°
2026-05-07 19:50 35.62360 -94.69074 38053 ft 336 kts 263°
2026-05-07 19:51 35.61913 -94.74759 38051 ft 336 kts 263°
2026-05-07 19:51 35.61461 -94.80469 38048 ft 336 kts 262°
2026-05-07 19:52 35.61005 -94.86174 38053 ft 336 kts 263°
2026-05-07 19:52 35.60553 -94.91848 38052 ft 337 kts 263°
2026-05-07 19:53 35.60090 -94.97586 38049 ft 337 kts 262°
2026-05-07 19:53 35.59628 -95.03293 38044 ft 336 kts 262°
2026-05-07 19:54 35.59163 -95.08981 38045 ft 337 kts 263°
2026-05-07 19:54 35.58694 -95.14705 38044 ft 338 kts 262°
2026-05-07 19:55 35.58218 -95.20466 38045 ft 338 kts 262°
2026-05-07 19:55 35.57748 -95.26154 38046 ft 337 kts 263°
2026-05-07 19:56 35.57265 -95.31904 38052 ft 338 kts 262°
2026-05-07 19:56 35.56789 -95.37607 38053 ft 338 kts 262°
2026-05-07 19:57 35.56300 -95.43350 38052 ft 338 kts 263°
2026-05-07 19:57 35.55815 -95.49061 38049 ft 339 kts 262°
2026-05-07 19:58 35.55324 -95.54799 38044 ft 338 kts 262°
2026-05-07 19:58 35.54831 -95.60555 38044 ft 339 kts 262°
2026-05-07 19:59 35.54332 -95.66309 38043 ft 339 kts 262°
2026-05-07 19:59 35.53836 -95.72046 38038 ft 339 kts 262°
2026-05-07 20:00 35.53337 -95.77762 38036 ft 339 kts 262°
2026-05-07 20:00 35.52832 -95.83522 38040 ft 339 kts 262°
2026-05-07 20:01 35.52326 -95.89248 38044 ft 339 kts 262°
2026-05-07 20:01 35.51814 -95.95016 38046 ft 340 kts 262°
2026-05-07 20:02 35.51301 -96.00751 38047 ft 340 kts 262°
2026-05-07 20:02 35.50781 -96.06533 38043 ft 340 kts 262°
2026-05-07 20:03 35.50267 -96.12246 38039 ft 340 kts 262°
2026-05-07 20:03 35.49741 -96.18047 38036 ft 341 kts 262°
2026-05-07 20:04 35.49215 -96.23796 38036 ft 341 kts 262°
2026-05-07 20:04 35.48686 -96.29580 38033 ft 341 kts 262°
2026-05-07 20:05 35.48154 -96.35350 38032 ft 342 kts 262°
2026-05-07 20:05 35.47621 -96.41110 38031 ft 341 kts 262°
2026-05-07 20:06 35.47084 -96.46858 38033 ft 341 kts 262°
2026-05-07 20:06 35.46546 -96.52619 38035 ft 342 kts 262°
2026-05-07 20:07 35.45998 -96.58418 38035 ft 342 kts 262°
2026-05-07 20:07 35.45450 -96.64207 38034 ft 342 kts 262°
2026-05-07 20:08 35.44899 -96.69981 38037 ft 342 kts 262°
2026-05-07 20:08 35.44350 -96.75741 38040 ft 343 kts 261°
2026-05-07 20:09 35.43794 -96.81518 38041 ft 343 kts 261°
2026-05-07 20:10 35.42954 -96.90213 38044 ft 343 kts 261°
2026-05-07 20:10 35.42389 -96.96008 38044 ft 343 kts 261°
2026-05-07 20:11 35.41830 -97.01736 38045 ft 343 kts 261°
2026-05-07 20:11 35.41263 -97.07492 38039 ft 343 kts 261°
2026-05-07 20:12 35.40685 -97.13327 38041 ft 343 kts 261°
2026-05-07 20:12 35.40112 -97.19103 38042 ft 344 kts 261°
2026-05-07 20:13 35.39530 -97.24913 38044 ft 344 kts 261°
2026-05-07 20:13 35.38949 -97.30718 38044 ft 345 kts 261°
2026-05-07 20:14 35.38362 -97.36558 38046 ft 345 kts 261°
2026-05-07 20:14 35.37770 -97.42381 38044 ft 345 kts 261°
2026-05-07 20:15 35.37174 -97.48205 38048 ft 345 kts 261°
2026-05-07 20:15 35.36579 -97.54024 38047 ft 346 kts 261°
2026-05-07 20:16 35.36016 -97.59868 38045 ft 347 kts 262°
2026-05-07 20:16 35.35769 -97.65782 38048 ft 349 kts 264°
2026-05-07 20:17 35.35595 -97.71688 38043 ft 349 kts 264°
2026-05-07 20:17 35.35421 -97.77580 38041 ft 348 kts 264°
2026-05-07 20:18 35.35246 -97.83524 38036 ft 350 kts 264°
2026-05-07 20:18 35.35071 -97.89459 38036 ft 349 kts 265°
2026-05-07 20:19 35.34895 -97.95405 38030 ft 349 kts 264°
2026-05-07 20:19 35.34711 -98.01344 38025 ft 350 kts 265°
2026-05-07 20:20 35.34532 -98.07252 38020 ft 349 kts 264°
2026-05-07 20:20 35.34346 -98.13177 38015 ft 350 kts 264°
2026-05-07 20:21 35.34158 -98.19142 38015 ft 350 kts 264°
2026-05-07 20:21 35.33964 -98.25070 38010 ft 351 kts 264°
2026-05-07 20:22 35.33766 -98.31046 38007 ft 351 kts 264°
2026-05-07 20:22 35.33567 -98.36993 38005 ft 351 kts 264°
2026-05-07 20:23 35.33368 -98.42954 38004 ft 352 kts 264°
2026-05-07 20:23 35.33162 -98.48925 38004 ft 351 kts 264°
2026-05-07 20:24 35.32955 -98.54894 38002 ft 352 kts 264°
2026-05-07 20:24 35.32745 -98.60878 38002 ft 353 kts 264°
2026-05-07 20:25 35.32533 -98.66842 38010 ft 353 kts 263°
2026-05-07 20:25 35.32312 -98.72855 38005 ft 353 kts 264°
2026-05-07 20:26 35.32098 -98.78745 38007 ft 353 kts 264°
2026-05-07 20:26 35.31875 -98.84723 38011 ft 354 kts 264°
2026-05-07 20:27 35.31647 -98.90731 38010 ft 354 kts 264°
2026-05-07 20:27 35.31418 -98.96767 38014 ft 355 kts 264°
2026-05-07 20:28 35.31185 -99.02766 38019 ft 354 kts 264°
2026-05-07 20:28 35.30951 -99.08780 38025 ft 355 kts 264°
2026-05-07 20:29 35.30711 -99.14801 38029 ft 355 kts 263°
2026-05-07 20:29 35.30469 -99.20827 38030 ft 356 kts 264°
2026-05-07 20:30 35.30223 -99.26882 38033 ft 357 kts 263°
2026-05-07 20:30 35.29971 -99.32935 38031 ft 356 kts 264°
2026-05-07 20:31 35.29721 -99.38977 38030 ft 357 kts 263°
2026-05-07 20:31 35.29462 -99.45041 38025 ft 358 kts 263°
2026-05-07 20:32 35.29203 -99.51124 38022 ft 358 kts 264°
2026-05-07 20:32 35.28943 -99.57200 38025 ft 359 kts 263°
2026-05-07 20:33 35.28675 -99.63305 38015 ft 360 kts 263°
2026-05-07 20:33 35.28402 -99.69411 38011 ft 360 kts 263°
2026-05-07 20:34 35.28132 -99.75513 38012 ft 360 kts 263°
2026-05-07 20:34 35.27856 -99.81613 38010 ft 360 kts 263°
2026-05-07 20:35 35.27575 -99.87708 38010 ft 360 kts 263°
2026-05-07 20:35 35.27292 -99.93830 38011 ft 361 kts 263°
2026-05-07 20:36 35.27008 -99.99921 38006 ft 361 kts 263°
2026-05-07 20:36 35.26719 -100.06041 38012 ft 362 kts 263°
2026-05-07 20:37 35.26426 -100.12206 38011 ft 362 kts 263°
2026-05-07 20:37 35.26136 -100.18175 38018 ft 363 kts 263°
2026-05-07 20:38 35.25836 -100.24335 38019 ft 363 kts 263°
2026-05-07 20:38 35.25533 -100.30479 38016 ft 364 kts 263°
2026-05-07 20:39 35.25223 -100.36680 38024 ft 364 kts 263°
2026-05-07 20:39 35.24913 -100.42822 38029 ft 365 kts 263°
2026-05-07 20:40 35.24595 -100.49023 38032 ft 365 kts 263°
2026-05-07 20:40 35.24294 -100.55180 38034 ft 366 kts 264°
2026-05-07 20:41 35.24248 -100.61446 38036 ft 368 kts 265°
2026-05-07 20:41 35.24226 -100.67726 38038 ft 369 kts 265°
2026-05-07 20:42 35.24208 -100.73985 38038 ft 369 kts 265°
2026-05-07 20:42 35.24184 -100.80219 38045 ft 369 kts 265°
2026-05-07 20:43 35.24161 -100.86356 38044 ft 370 kts 265°
2026-05-07 20:43 35.24134 -100.92703 38048 ft 371 kts 265°
2026-05-07 20:44 35.24102 -100.98994 38050 ft 371 kts 265°
2026-05-07 20:44 35.24067 -101.05352 38050 ft 372 kts 265°
2026-05-07 20:45 35.24027 -101.11696 38056 ft 372 kts 265°
2026-05-07 20:45 35.23985 -101.18036 38054 ft 373 kts 265°
2026-05-07 20:46 35.23941 -101.24366 38058 ft 374 kts 265°
2026-05-07 20:46 35.23891 -101.30702 38058 ft 373 kts 265°
2026-05-07 20:47 35.23840 -101.37040 38056 ft 375 kts 265°
2026-05-07 20:47 35.23783 -101.43443 38055 ft 375 kts 265°
2026-05-07 20:48 35.23723 -101.49822 38059 ft 375 kts 265°
2026-05-07 20:48 35.23661 -101.56194 38063 ft 375 kts 265°
2026-05-07 20:49 35.23286 -101.62489 38067 ft 372 kts 258°
2026-05-07 20:49 35.22063 -101.68623 38073 ft 372 kts 250°
2026-05-07 20:50 35.20032 -101.74425 38074 ft 372 kts 243°
2026-05-07 20:50 35.17242 -101.79745 38075 ft 373 kts 235°
2026-05-07 20:51 35.14149 -101.84773 38070 ft 373 kts 235°
2026-05-07 20:51 35.11018 -101.89814 38068 ft 373 kts 235°
2026-05-07 20:52 35.07860 -101.94872 38065 ft 373 kts 235°
2026-05-07 20:52 35.04712 -101.99896 38066 ft 374 kts 235°
2026-05-07 20:53 35.01563 -102.04908 38067 ft 374 kts 234°
2026-05-07 20:53 34.98409 -102.09918 38069 ft 372 kts 235°
2026-05-07 20:54 34.95250 -102.14930 38072 ft 373 kts 234°
2026-05-07 20:54 34.92096 -102.19933 38077 ft 373 kts 234°
2026-05-07 20:55 34.88919 -102.24957 38083 ft 374 kts 234°
2026-05-07 20:55 34.85765 -102.29933 38087 ft 374 kts 234°
2026-05-07 20:56 34.82581 -102.34959 38089 ft 374 kts 234°
2026-05-07 20:56 34.79406 -102.39955 38089 ft 373 kts 234°
2026-05-07 20:57 34.76245 -102.44924 38086 ft 374 kts 234°
2026-05-07 20:57 34.73072 -102.49910 38088 ft 374 kts 234°
2026-05-07 20:58 34.69888 -102.54902 38090 ft 374 kts 234°
2026-05-07 20:58 34.66696 -102.59906 38089 ft 374 kts 234°
2026-05-07 20:59 34.63502 -102.64897 38087 ft 374 kts 234°
2026-05-07 20:59 34.60326 -102.69855 38089 ft 373 kts 233°
2026-05-07 21:00 34.57149 -102.74810 38091 ft 374 kts 233°
2026-05-07 21:00 34.53940 -102.79808 38094 ft 374 kts 233°
2026-05-07 21:01 34.50746 -102.84772 38089 ft 375 kts 233°
2026-05-07 21:01 34.47559 -102.89726 38093 ft 375 kts 233°
2026-05-07 21:02 34.44337 -102.94717 38092 ft 375 kts 233°
2026-05-07 21:02 34.41148 -102.99658 38094 ft 374 kts 233°
2026-05-07 21:03 34.37942 -103.04620 38097 ft 373 kts 233°
2026-05-07 21:03 34.34745 -103.09556 38094 ft 373 kts 233°
2026-05-07 21:04 34.31553 -103.14477 38089 ft 373 kts 233°
2026-05-07 21:04 34.28365 -103.19384 38100 ft 373 kts 233°
2026-05-07 21:05 34.25160 -103.24314 38104 ft 373 kts 233°
2026-05-07 21:05 34.21941 -103.29257 38103 ft 372 kts 233°
2026-05-07 21:06 34.18761 -103.34133 38107 ft 372 kts 233°
2026-05-07 21:06 34.15566 -103.39030 38106 ft 373 kts 233°
2026-05-07 21:07 34.12358 -103.43938 38097 ft 374 kts 233°
2026-05-07 21:07 34.09126 -103.48871 38103 ft 374 kts 233°
2026-05-07 21:08 34.05922 -103.53761 38099 ft 374 kts 232°
2026-05-07 21:08 34.02684 -103.58693 38103 ft 373 kts 232°
2026-05-07 21:09 33.99475 -103.63574 38108 ft 373 kts 232°
2026-05-07 21:09 33.96233 -103.68497 38110 ft 373 kts 232°
2026-05-07 21:10 33.93024 -103.73367 38112 ft 374 kts 232°
2026-05-07 21:10 33.89764 -103.78302 38110 ft 374 kts 232°
2026-05-07 21:11 33.86545 -103.83175 38109 ft 374 kts 232°
2026-05-07 21:11 33.81684 -103.90516 38107 ft 374 kts 232°
2026-05-07 21:12 33.78448 -103.95396 38109 ft 373 kts 232°
2026-05-07 21:12 33.75229 -104.00245 38106 ft 373 kts 232°
2026-05-07 21:13 33.71986 -104.05121 38102 ft 374 kts 231°
2026-05-07 21:13 33.68737 -104.09995 38103 ft 374 kts 232°
2026-05-07 21:14 33.65505 -104.14848 38101 ft 373 kts 231°
2026-05-07 21:14 33.62270 -104.19691 38102 ft 374 kts 231°
2026-05-07 21:15 33.59011 -104.24563 38100 ft 374 kts 232°
2026-05-07 21:15 33.55773 -104.29401 38101 ft 374 kts 232°
2026-05-07 21:16 33.52512 -104.34264 38098 ft 374 kts 232°
2026-05-07 21:16 33.49252 -104.39120 38096 ft 374 kts 231°
2026-05-07 21:17 33.45996 -104.43966 38095 ft 375 kts 231°
2026-05-07 21:17 33.42707 -104.48852 38090 ft 375 kts 231°
2026-05-07 21:18 33.39536 -104.53552 38087 ft 375 kts 231°
2026-05-07 21:18 33.36124 -104.58295 38081 ft 375 kts 227°
2026-05-07 21:19 33.32390 -104.62620 38089 ft 374 kts 223°
2026-05-07 21:19 33.28405 -104.66473 38091 ft 377 kts 218°
2026-05-07 21:20 33.24110 -104.70087 38096 ft 376 kts 218°
2026-05-07 21:20 33.19841 -104.73666 38102 ft 376 kts 217°
2026-05-07 21:21 33.15567 -104.77231 38107 ft 376 kts 217°
2026-05-07 21:21 33.11264 -104.80809 38118 ft 375 kts 217°
2026-05-07 21:22 33.06992 -104.84347 38123 ft 375 kts 217°
2026-05-07 21:22 33.02702 -104.87900 38126 ft 376 kts 217°
2026-05-07 21:23 32.98419 -104.91439 38128 ft 375 kts 217°
2026-05-07 21:23 32.94138 -104.94970 38133 ft 374 kts 217°
2026-05-07 21:24 32.89971 -104.98409 38139 ft 373 kts 217°
2026-05-07 21:24 32.85706 -105.01922 38134 ft 374 kts 217°
2026-05-07 21:25 32.81415 -105.05450 38136 ft 375 kts 217°
2026-05-07 21:25 32.77146 -105.08959 38141 ft 374 kts 217°
2026-05-07 21:26 32.72917 -105.12427 38148 ft 374 kts 217°
2026-05-07 21:26 32.68627 -105.15943 38146 ft 374 kts 217°
2026-05-07 21:27 32.64353 -105.19441 38149 ft 375 kts 217°
2026-05-07 21:27 32.60068 -105.22949 38153 ft 376 kts 217°
2026-05-07 21:28 32.55756 -105.26465 38160 ft 376 kts 217°
2026-05-07 21:28 32.51459 -105.29974 38162 ft 376 kts 217°
2026-05-07 21:29 32.47212 -105.33430 38160 ft 376 kts 217°
2026-05-07 21:29 32.42892 -105.36948 38155 ft 376 kts 217°
2026-05-07 21:30 32.38554 -105.40475 38152 ft 377 kts 217°
2026-05-07 21:30 32.34221 -105.43991 38155 ft 377 kts 217°
2026-05-07 21:31 32.29951 -105.47453 38144 ft 377 kts 217°
2026-05-07 21:31 32.25646 -105.50941 38139 ft 376 kts 217°
2026-05-07 21:32 32.21304 -105.54456 38141 ft 376 kts 217°
2026-05-07 21:32 32.16986 -105.57942 38148 ft 375 kts 217°
2026-05-07 21:33 32.12669 -105.61427 38146 ft 375 kts 217°
2026-05-07 21:33 32.08377 -105.64887 38148 ft 375 kts 217°
2026-05-07 21:34 32.04215 -105.68583 38154 ft 373 kts 222°
2026-05-07 21:34 32.00645 -105.72957 38146 ft 372 kts 230°
2026-05-07 21:35 31.97693 -105.77964 38154 ft 374 kts 237°
2026-05-07 21:35 31.95460 -105.83497 38151 ft 379 kts 245°
2026-05-07 21:36 31.93621 -105.89314 38160 ft 380 kts 245°
2026-05-07 21:36 31.91806 -105.95168 38168 ft 381 kts 245°
2026-05-07 21:37 31.90001 -106.01015 38163 ft 382 kts 245°
2026-05-07 21:37 31.88183 -106.06908 38139 ft 382 kts 245°
2026-05-07 21:38 31.86371 -106.12769 38103 ft 383 kts 245°
2026-05-07 21:38 31.84587 -106.18643 38105 ft 384 kts 248°
2026-05-07 21:39 31.83240 -106.24781 38080 ft 389 kts 253°
2026-05-07 21:39 31.82498 -106.31124 38080 ft 395 kts 259°
2026-05-07 21:40 31.82398 -106.37614 38080 ft 401 kts 265°
2026-05-07 21:40 31.82823 -106.44179 38077 ft 404 kts 267°
2026-05-07 21:41 31.83302 -106.50738 38078 ft 406 kts 268°
2026-05-07 21:41 31.83792 -106.57374 38083 ft 407 kts 268°
2026-05-07 21:42 31.84278 -106.63968 38080 ft 408 kts 268°
2026-05-07 21:42 31.84764 -106.70611 38092 ft 409 kts 268°
2026-05-07 21:43 31.85251 -106.77278 38084 ft 411 kts 268°
2026-05-07 21:43 31.85732 -106.83943 38082 ft 409 kts 268°
2026-05-07 21:44 31.86211 -106.90610 38090 ft 411 kts 268°
2026-05-07 21:44 31.86689 -106.97326 38094 ft 412 kts 268°
2026-05-07 21:45 31.87164 -107.04032 38095 ft 412 kts 268°
2026-05-07 21:45 31.87635 -107.10743 38101 ft 414 kts 268°
2026-05-07 21:46 31.88102 -107.17458 38099 ft 416 kts 268°
2026-05-07 21:46 31.88573 -107.24265 38099 ft 418 kts 268°
2026-05-07 21:47 31.89036 -107.31028 38086 ft 418 kts 268°
2026-05-07 21:47 31.89501 -107.37862 38083 ft 419 kts 268°
2026-05-07 21:48 31.89958 -107.44670 38084 ft 421 kts 268°
2026-05-07 21:48 31.90419 -107.51549 38076 ft 422 kts 268°
2026-05-07 21:49 31.90872 -107.58388 38080 ft 423 kts 268°
2026-05-07 21:49 31.91324 -107.65302 38092 ft 424 kts 268°
2026-05-07 21:50 31.91548 -107.68671 38074 ft 410 kts 268°
2026-05-07 21:50 31.91766 -107.71954 38083 ft 393 kts 268°
2026-05-07 21:50 31.91974 -107.75093 38088 ft 376 kts 268°
2026-05-07 21:50 31.92170 -107.78088 38084 ft 361 kts 268°
2026-05-07 21:51 31.92726 -107.80969 38067 ft 370 kts 287°
2026-05-07 21:51 31.94214 -107.83485 38079 ft 389 kts 307°
2026-05-07 21:51 31.96469 -107.85371 38100 ft 407 kts 328°
2026-05-07 21:51 31.99265 -107.86255 38100 ft 424 kts 351°
2026-05-07 21:52 32.02220 -107.85867 38100 ft 435 kts 16°
2026-05-07 21:52 32.04915 -107.84186 38115 ft 438 kts 40°
2026-05-07 21:52 32.06862 -107.81525 38117 ft 432 kts 65°
2026-05-07 21:52 32.07827 -107.78272 38110 ft 418 kts 89°
2026-05-07 21:53 32.07761 -107.74921 38124 ft 407 kts 105°
2026-05-07 21:53 32.07298 -107.71617 38102 ft 407 kts 107°
2026-05-07 21:53 32.06535 -107.64980 38096 ft 412 kts 103°
2026-05-07 21:54 32.06104 -107.61684 38073 ft 402 kts 115°
2026-05-07 21:54 32.04860 -107.58883 38093 ft 379 kts 138°
2026-05-07 21:54 32.02958 -107.56898 38101 ft 359 kts 157°
2026-05-07 21:54 32.00712 -107.55807 38102 ft 345 kts 174°
2026-05-07 21:55 31.98372 -107.55597 38098 ft 334 kts 191°
2026-05-07 21:55 31.96124 -107.56226 38105 ft 327 kts 205°
2026-05-07 21:55 31.94174 -107.57561 38082 ft 324 kts 219°
2026-05-07 21:55 31.92647 -107.59498 38081 ft 326 kts 233°
2026-05-07 21:56 31.91656 -107.61894 38083 ft 333 kts 248°
2026-05-07 21:56 31.91300 -107.64623 38097 ft 343 kts 263°
2026-05-07 21:56 31.91609 -107.70271 38092 ft 348 kts 266°
2026-05-07 21:57 31.91993 -107.75944 38103 ft 349 kts 268°
2026-05-07 21:57 31.92996 -107.81533 38087 ft 372 kts 291°
2026-05-07 21:58 31.94671 -107.83956 38088 ft 392 kts 311°
2026-05-07 21:58 31.97075 -107.85660 38107 ft 412 kts 333°
2026-05-07 21:58 31.99926 -107.86276 38102 ft 428 kts 356°
2026-05-07 21:58 32.02858 -107.85606 38106 ft 437 kts 21°
2026-05-07 21:59 32.05428 -107.83695 38120 ft 439 kts 45°
2026-05-07 21:59 32.07209 -107.80848 38122 ft 432 kts 69°
2026-05-07 21:59 32.07957 -107.77499 38114 ft 417 kts 94°
2026-05-07 21:59 32.07732 -107.74133 38124 ft 406 kts 107°
2026-05-07 22:00 32.06796 -107.67560 38113 ft 409 kts 104°
2026-05-07 22:00 32.05908 -107.60973 38071 ft 395 kts 121°
2026-05-07 22:01 32.04483 -107.58347 38094 ft 375 kts 142°
2026-05-07 22:01 32.02467 -107.56557 38092 ft 357 kts 161°
2026-05-07 22:01 32.00148 -107.55668 38090 ft 342 kts 178°
2026-05-07 22:01 31.97836 -107.55671 38085 ft 330 kts 194°
2026-05-07 22:02 31.95684 -107.56452 38080 ft 325 kts 208°
2026-05-07 22:02 31.93797 -107.57941 38063 ft 324 kts 222°
2026-05-07 22:02 31.92382 -107.59984 38058 ft 326 kts 237°
2026-05-07 22:02 31.91520 -107.62461 38072 ft 335 kts 251°
2026-05-07 22:03 31.91314 -107.65223 38078 ft 345 kts 265°
2026-05-07 22:03 31.91480 -107.68079 38067 ft 346 kts 266°
2026-05-07 22:03 31.91836 -107.73696 38079 ft 347 kts 267°
2026-05-07 22:04 31.92297 -107.79364 38075 ft 354 kts 275°
2026-05-07 22:04 31.93290 -107.82101 38074 ft 376 kts 296°
2026-05-07 22:04 31.95119 -107.84386 38073 ft 395 kts 316°
2026-05-07 22:05 31.97604 -107.85872 38095 ft 413 kts 338°
2026-05-07 22:05 32.00498 -107.86247 38099 ft 429 kts
2026-05-07 22:05 32.03403 -107.85310 38106 ft 437 kts 26°
2026-05-07 22:05 32.05827 -107.83173 38122 ft 436 kts 50°
2026-05-07 22:06 32.07396 -107.80183 38120 ft 426 kts 75°
2026-05-07 22:06 32.07886 -107.76855 38109 ft 412 kts 99°
2026-05-07 22:06 32.07275 -107.73644 38108 ft 393 kts 122°
2026-05-07 22:06 32.05807 -107.71027 38105 ft 375 kts 142°
2026-05-07 22:07 32.03787 -107.69179 38099 ft 359 kts 159°
2026-05-07 22:07 32.01495 -107.68195 38097 ft 344 kts 176°
2026-05-07 22:07 31.96748 -107.68265 38098 ft 349 kts 193°
2026-05-07 22:08 31.92018 -107.70059 38090 ft 367 kts 208°
2026-05-07 22:08 31.87916 -107.73516 38083 ft 386 kts 224°
2026-05-07 22:09 31.86158 -107.75931 38081 ft 397 kts 232°
2026-05-07 22:09 31.84729 -107.78737 38085 ft 406 kts 240°
2026-05-07 22:09 31.83175 -107.85201 38091 ft 420 kts 259°
2026-05-07 22:10 31.83474 -107.92152 38086 ft 431 kts 270°
2026-05-07 22:10 31.84219 -107.99133 38096 ft 434 kts 271°
2026-05-07 22:11 31.84986 -108.06183 38116 ft 433 kts 271°
2026-05-07 22:11 31.85753 -108.13235 38106 ft 434 kts 271°
2026-05-07 22:12 31.86512 -108.20264 38105 ft 435 kts 271°
2026-05-07 22:12 31.87267 -108.27308 38105 ft 435 kts 272°
2026-05-07 22:13 31.88020 -108.34354 38113 ft 436 kts 272°
2026-05-07 22:13 31.88759 -108.41314 38108 ft 435 kts 271°
2026-05-07 22:14 31.89505 -108.48390 38089 ft 435 kts 272°
2026-05-07 22:14 31.90244 -108.55409 38083 ft 437 kts 271°
2026-05-07 22:15 31.90614 -108.58952 37851 ft 435 kts 272°
2026-05-07 22:15 31.90982 -108.62479 37588 ft 433 kts 271°
2026-05-07 22:15 31.91343 -108.65958 37328 ft 431 kts 271°
2026-05-07 22:15 31.91706 -108.69458 37072 ft 429 kts 271°
2026-05-07 22:16 31.92065 -108.72912 36823 ft 427 kts 271°
2026-05-07 22:16 31.92423 -108.76385 36550 ft 427 kts 271°
2026-05-07 22:16 31.92780 -108.79882 36291 ft 426 kts 271°
2026-05-07 22:16 31.93133 -108.83325 36042 ft 428 kts 272°
2026-05-07 22:17 31.93490 -108.86835 35788 ft 428 kts 272°
2026-05-07 22:17 31.93843 -108.90299 35531 ft 429 kts 272°
2026-05-07 22:17 31.94196 -108.93761 35281 ft 429 kts 272°
2026-05-07 22:17 31.94548 -108.97221 35025 ft 429 kts 272°
2026-05-07 22:18 31.94903 -109.00738 34776 ft 431 kts 272°
2026-05-07 22:18 31.95610 -109.07745 34269 ft 434 kts 272°
2026-05-07 22:18 31.95953 -109.11165 34039 ft 436 kts 273°
2026-05-07 22:19 31.96308 -109.14741 33787 ft 440 kts 273°
2026-05-07 22:19 31.96663 -109.18288 33539 ft 442 kts 273°
2026-05-07 22:19 31.97022 -109.21874 33305 ft 442 kts 273°
2026-05-07 22:19 31.97377 -109.25468 33085 ft 446 kts 273°
2026-05-07 22:20 31.97738 -109.29094 32847 ft 447 kts 273°
2026-05-07 22:20 31.98097 -109.32725 32621 ft 449 kts 273°
2026-05-07 22:20 31.98457 -109.36385 32405 ft 451 kts 273°
2026-05-07 22:20 31.98814 -109.40028 32175 ft 453 kts 273°
2026-05-07 22:21 31.99172 -109.43693 31956 ft 455 kts 273°
2026-05-07 22:21 31.99534 -109.47425 31737 ft 458 kts 273°
2026-05-07 22:21 31.99897 -109.51145 31502 ft 458 kts 273°
2026-05-07 22:21 32.00260 -109.54887 31286 ft 458 kts 273°
2026-05-07 22:22 32.00616 -109.58591 31067 ft 460 kts 273°
2026-05-07 22:22 32.00977 -109.62336 30838 ft 460 kts 273°
2026-05-07 22:22 32.01336 -109.66093 30613 ft 462 kts 273°
2026-05-07 22:22 32.01691 -109.69820 30388 ft 464 kts 273°
2026-05-07 22:23 32.02047 -109.73573 30150 ft 464 kts 273°
2026-05-07 22:23 32.02405 -109.77340 29928 ft 465 kts 273°
2026-05-07 22:23 32.02767 -109.81149 29685 ft 466 kts 273°
2026-05-07 22:23 32.03122 -109.84930 29321 ft 468 kts 274°
2026-05-07 22:24 32.03479 -109.88723 28661 ft 463 kts 274°
2026-05-07 22:24 32.03829 -109.92451 28133 ft 460 kts 274°
2026-05-07 22:24 32.04180 -109.96197 27522 ft 456 kts 274°
2026-05-07 22:24 32.04527 -109.99891 26898 ft 451 kts 274°
2026-05-07 22:25 32.04862 -110.03507 26257 ft 447 kts 274°
2026-05-07 22:25 32.05198 -110.07149 25592 ft 444 kts 274°
2026-05-07 22:25 32.05525 -110.10702 24920 ft 442 kts 274°
2026-05-07 22:25 32.05856 -110.14327 24195 ft 439 kts 274°
2026-05-07 22:26 32.06179 -110.17869 23485 ft 437 kts 275°
2026-05-07 22:26 32.06455 -110.21415 22769 ft 433 kts 273°
2026-05-07 22:26 32.06628 -110.24902 22087 ft 430 kts 272°
2026-05-07 22:26 32.06774 -110.28386 21421 ft 426 kts 271°
2026-05-07 22:27 32.06917 -110.31853 20780 ft 422 kts 272°
2026-05-07 22:27 32.07065 -110.35282 20149 ft 419 kts 272°
2026-05-07 22:27 32.07218 -110.38721 19510 ft 415 kts 272°
2026-05-07 22:27 32.07369 -110.42055 18874 ft 412 kts 272°
2026-05-07 22:28 32.07521 -110.45419 18246 ft 409 kts 273°
2026-05-07 22:28 32.07670 -110.48717 17622 ft 405 kts 273°
2026-05-07 22:28 32.07820 -110.52036 16986 ft 402 kts 273°
2026-05-07 22:28 32.07966 -110.55293 16347 ft 399 kts 273°
2026-05-07 22:29 32.08110 -110.58530 15696 ft 395 kts 273°
2026-05-07 22:29 32.08254 -110.61776 15030 ft 393 kts 273°
2026-05-07 22:29 32.08395 -110.64978 14303 ft 392 kts 273°
2026-05-07 22:29 32.08533 -110.68146 13611 ft 390 kts 273°
2026-05-07 22:30 32.08670 -110.71343 12941 ft 386 kts 273°
2026-05-07 22:30 32.08805 -110.74464 12304 ft 382 kts 273°
2026-05-07 22:30 32.08939 -110.77553 11687 ft 378 kts 273°
2026-05-07 22:30 32.09070 -110.80592 11262 ft 367 kts 273°
2026-05-07 22:31 32.09195 -110.83540 10969 ft 353 kts 274°
2026-05-07 22:31 32.09314 -110.86385 10635 ft 342 kts 274°
2026-05-07 22:31 32.09438 -110.89143 10404 ft 329 kts 276°
2026-05-07 22:31 32.10034 -110.91645 10163 ft 312 kts 302°
2026-05-07 22:32 32.11439 -110.93486 9992 ft 294 kts 323°
2026-05-07 22:32 32.13025 -110.94938 9648 ft 290 kts 325°
2026-05-07 22:32 32.14637 -110.96404 9213 ft 290 kts 324°
2026-05-07 22:32 32.16219 -110.97859 8804 ft 289 kts 324°
2026-05-07 22:33 32.17784 -110.99320 8411 ft 287 kts 323°
2026-05-07 22:33 32.19341 -111.00784 8017 ft 285 kts 324°
2026-05-07 22:33 32.20893 -111.02252 7618 ft 283 kts 324°
2026-05-07 22:33 32.22416 -111.03699 7227 ft 280 kts 324°
2026-05-07 22:34 32.23924 -111.05129 6839 ft 278 kts 323°
2026-05-07 22:34 32.25422 -111.06554 6445 ft 276 kts 323°
2026-05-07 22:34 32.26922 -111.07982 6054 ft 274 kts 323°
2026-05-07 22:34 32.28392 -111.09380 5662 ft 271 kts 324°
2026-05-07 22:35 32.29926 -111.10635 5297 ft 267 kts 331°
2026-05-07 22:35 32.31549 -111.11683 4856 ft 263 kts 333°
2026-05-07 22:35 32.33093 -111.12772 4371 ft 253 kts 327°
2026-05-07 22:35 32.34417 -111.13934 4052 ft 222 kts 323°
2026-05-07 22:36 32.35549 -111.15073 3736 ft 202 kts 317°
2026-05-07 22:36 32.36415 -111.16228 3668 ft 174 kts 312°
2026-05-07 22:36 32.37156 -111.17251 3488 ft 155 kts 314°
2026-05-07 22:36 32.37892 -111.18146 3068 ft 151 kts 320°
2026-05-07 22:37 32.38641 -111.19016 2668 ft 150 kts 319°
2026-05-07 22:37 32.39377 -111.19855 2403 ft 140 kts 317°
2026-05-07 22:37 32.40060 -111.20617 2417 ft 131 kts 318°
2026-05-07 22:37 32.40754 -111.21300 2689 ft 130 kts 327°
2026-05-07 22:38 32.41524 -111.21954 2910 ft 146 kts 327°
2026-05-07 22:38 32.42399 -111.22640 3242 ft 154 kts 329°
2026-05-07 22:38 32.43248 -111.23443 3520 ft 158 kts 321°
2026-05-07 22:38 32.44066 -111.24319 3612 ft 160 kts 319°
2026-05-07 22:39 32.44813 -111.25248 3631 ft 148 kts 315°
2026-05-07 22:39 32.45493 -111.26135 3337 ft 144 kts 317°
2026-05-07 22:39 32.46189 -111.26951 3021 ft 139 kts 321°
2026-05-07 22:39 32.46867 -111.27718 2722 ft 132 kts 318°
2026-05-07 22:40 32.47525 -111.28463 2492 ft 129 kts 318°
2026-05-07 22:40 32.48170 -111.29212 2389 ft 130 kts 316°
2026-05-07 22:40 32.48815 -111.29968 2277 ft 129 kts 316°
2026-05-07 22:40 32.49448 -111.30722 2141 ft 128 kts 315°
2026-05-07 22:41 32.50068 -111.31454 2010 ft 125 kts 315°
2026-05-07 22:41 32.50671 -111.32163 1899 ft 107 kts 314°
2026-05-07 22:41 32.51001 -111.32559 1895 ft 48 kts 315°
2026-05-07 22:41 32.51260 -111.32864 1891 ft 52 kts 312°
2026-05-07 22:42 32.51505 -111.33159 1886 ft 45 kts 319°
2026-05-07 22:42 32.51677 -111.33289 1886 ft 19 kts 359°
2026-05-07 22:42 32.51732 -111.33199 1886 ft 17 kts 111°
2026-05-07 22:42 32.51652 -111.33088 1887 ft 17 kts 134°
2026-05-07 22:43 32.51569 -111.32987 1889 ft 19 kts 135°
2026-05-07 22:43 32.51455 -111.32855 1889 ft 23 kts 135°
2026-05-07 22:43 32.51349 -111.32719 1891 ft 21 kts 137°
2026-05-07 22:43 32.51356 -111.32614 1892 ft 15 kts 43°
2026-05-07 22:44 32.51355 -111.32570 1892 ft 0 kts 241°
2026-05-07 22:44 32.51355 -111.32571 1892 ft 0 kts 241°